When you browse on this site, cookies collect data to enhance your experience and personalize the content and advertising you see.
Visit our Privacy Policy to learn more. By continuing to use the site, you agree to this use of cookies and data.
  • In Österreich
  • Länderverzeichnis
  • Für 7 Tage
  • Wassertemperatur
  • Satellitenkarten
  • Wetterkarte
  • News
  • Widgets
  • user-avatar
    Anmelden

    Stündliche Wetter Kyrdshali

    Heute, 18 November, Sonntag

    Zeit Temperatur Niederschläge Wind Luftdruck Luftfeuchtigkeit
    00:00 +2°C° 0.1 mm 3 m/S 734 mmHg 81%
    01:00 +2°C° 0.1 mm 3 m/S 733 mmHg 82%
    02:00 +2°C° 0 mm 3 m/S 733 mmHg 83%
    03:00 +2°C° 0.1 mm 3 m/S 733 mmHg 84%
    04:00 +2°C° 0.1 mm 3 m/S 733 mmHg 84%
    05:00 +2°C° 0.1 mm 3 m/S 732 mmHg 85%
    06:00 +2°C° 0.2 mm 3 m/S 732 mmHg 85%
    07:00 +3°C° 0.2 mm 4 m/S 732 mmHg 85%
    08:00 +3°C° 0.2 mm 4 m/S 731 mmHg 85%
    09:00 +3°C° 0.4 mm 4 m/S 731 mmHg 85%
    10:00 +3°C° 0.4 mm 4 m/S 730 mmHg 84%
    11:00 +3°C° 0.4 mm 4 m/S 730 mmHg 83%
    12:00 +4°C° 1 mm 4 m/S 729 mmHg 84%
    13:00 +4°C° 1 mm 4 m/S 729 mmHg 85%
    14:00 +4°C° 1 mm 3 m/S 728 mmHg 86%
    15:00 +4°C° 1.4 mm 3 m/S 727 mmHg 87%
    16:00 +4°C° 1.4 mm 3 m/S 727 mmHg 89%
    17:00 +4°C° 1.4 mm 3 m/S 726 mmHg 90%
    18:00 +4°C° 1.9 mm 3 m/S 725 mmHg 91%
    19:00 +4°C° 1.9 mm 3 m/S 725 mmHg 92%
    20:00 +4°C° 1.9 mm 3 m/S 724 mmHg 93%
    21:00 +4°C° 2.2 mm 3 m/S 724 mmHg 93%
    22:00 +5°C° 2.2 mm 3 m/S 723 mmHg 94%
    23:00 +5°C° 2.2 mm 3 m/S 723 mmHg 94%

    Morgen, 19 November, Montag

    Zeit Temperatur Niederschläge Wind Luftdruck Luftfeuchtigkeit
    00:00 +5°C° 2.7 mm 3 m/S 722 mmHg 94%
    01:00 +6°C° 2.7 mm 2 m/S 722 mmHg 95%
    02:00 +6°C° 2.7 mm 2 m/S 721 mmHg 95%
    03:00 +6°C° 1.2 mm 2 m/S 721 mmHg 93%
    04:00 +6°C° 1.2 mm 2 m/S 721 mmHg 92%
    05:00 +6°C° 1.2 mm 2 m/S 720 mmHg 90%
    06:00 +6°C° 0.1 mm 2 m/S 721 mmHg 90%
    07:00 +6°C° 0.1 mm 2 m/S 721 mmHg 89%
    08:00 +6°C° 0.1 mm 2 m/S 721 mmHg 88%
    09:00 +8°C° 0 mm 1 m/S 722 mmHg 85%
    10:00 +10°C° 0 mm 1 m/S 723 mmHg 81%
    11:00 +11°C° 0 mm 1 m/S 724 mmHg 78%
    12:00 +11°C° 0 mm 1 m/S 724 mmHg 76%
    13:00 +12°C° 0 mm 1 m/S 724 mmHg 74%
    14:00 +12°C° 0 mm 1 m/S 724 mmHg 72%
    15:00 +11°C° 0 mm 1 m/S 725 mmHg 76%
    16:00 +10°C° 0 mm 1 m/S 725 mmHg 79%
    17:00 +9°C° 0 mm 1 m/S 725 mmHg 82%
    18:00 +9°C° 0 mm 1 m/S 726 mmHg 83%
    19:00 +8°C° 0 mm 1 m/S 726 mmHg 84%
    20:00 +8°C° 0 mm 1 m/S 727 mmHg 85%
    21:00 +7°C° 0 mm 1 m/S 727 mmHg 85%
    22:00 +7°C° 0 mm 1 m/S 728 mmHg 85%
    23:00 +7°C° 0 mm 1 m/S 728 mmHg 85%

    übermorgen, 20 November, Dienstag

    Zeit Temperatur Niederschläge Wind Luftdruck Luftfeuchtigkeit
    00:00 +7°C° 0 mm 1 m/S 728 mmHg 85%
    01:00 +6°C° 0 mm 1 m/S 728 mmHg 84%
    02:00 +6°C° 0 mm 1 m/S 729 mmHg 84%
    03:00 +6°C° 0 mm 1 m/S 729 mmHg 85%
    04:00 +6°C° 0 mm 1 m/S 729 mmHg 86%
    05:00 +6°C° 0 mm 1 m/S 729 mmHg 86%
    06:00 +6°C° 0 mm 1 m/S 729 mmHg 86%
    07:00 +6°C° 0 mm 1 m/S 729 mmHg 86%
    08:00 +7°C° 0 mm 1 m/S 729 mmHg 86%
    09:00 +7°C° 0 mm 2 m/S 729 mmHg 85%
    10:00 +7°C° 0 mm 2 m/S 730 mmHg 84%
    11:00 +8°C° 0 mm 2 m/S 730 mmHg 83%
    12:00 +9°C° 0 mm 2 m/S 729 mmHg 83%
    13:00 +10°C° 0 mm 2 m/S 729 mmHg 82%
    14:00 +10°C° 0 mm 2 m/S 729 mmHg 82%
    15:00 +10°C° 0.1 mm 2 m/S 728 mmHg 85%
    16:00 +9°C° 0.1 mm 2 m/S 728 mmHg 88%
    17:00 +9°C° 0.1 mm 2 m/S 728 mmHg 91%
    18:00 +10°C° 0.3 mm 1 m/S 728 mmHg 92%
    19:00 +10°C° 0.3 mm 1 m/S 728 mmHg 93%
    20:00 +10°C° 0.3 mm 1 m/S 728 mmHg 94%
    21:00 +10°C° 0.3 mm 1 m/S 727 mmHg 94%
    22:00 +10°C° 0.3 mm 1 m/S 727 mmHg 95%
    23:00 +10°C° 0.3 mm 1 m/S 727 mmHg 95%

    21 November, Mittwoch

    Zeit Temperatur Niederschläge Wind Luftdruck Luftfeuchtigkeit
    00:00 +11°C° 0.4 mm 1 m/S 727 mmHg 96%
    01:00 +11°C° 0.4 mm 1 m/S 726 mmHg 96%
    02:00 +11°C° 0.4 mm 1 m/S 726 mmHg 97%
    03:00 +11°C° 0.2 mm 1 m/S 726 mmHg 97%
    04:00 +11°C° 0.2 mm 1 m/S 725 mmHg 97%
    05:00 +11°C° 0.2 mm 1 m/S 725 mmHg 97%
    06:00 +10°C° 0.2 mm 2 m/S 724 mmHg 97%
    07:00 +12°C° 0.2 mm 2 m/S 724 mmHg 97%
    08:00 +12°C° 0.2 mm 2 m/S 724 mmHg 97%
    09:00 +12°C° 0.7 mm 2 m/S 724 mmHg 96%
    10:00 +12°C° 0.7 mm 3 m/S 724 mmHg 95%
    11:00 +12°C° 0.7 mm 3 m/S 723 mmHg 93%
    12:00 +12°C° 1.4 mm 3 m/S 723 mmHg 94%
    13:00 +13°C° 1.4 mm 2 m/S 723 mmHg 94%
    14:00 +13°C° 1.4 mm 2 m/S 722 mmHg 94%
    15:00 +13°C° 0.9 mm 2 m/S 722 mmHg 95%
    16:00 +13°C° 0.9 mm 2 m/S 722 mmHg 95%
    17:00 +12°C° 0.9 mm 1 m/S 722 mmHg 96%
    18:00 +12°C° 0 mm 1 m/S 722 mmHg 95%
    19:00 +12°C° 0 mm 1 m/S 722 mmHg 94%
    20:00 +12°C° 0 mm 1 m/S 723 mmHg 93%
    21:00 +11°C° 0 mm 1 m/S 723 mmHg 93%
    22:00 +10°C° 0 mm 2 m/S 723 mmHg 92%
    23:00 +9°C° 0 mm 2 m/S 723 mmHg 91%

    22 November, Donnerstag

    Zeit Temperatur Niederschläge Wind Luftdruck Luftfeuchtigkeit
    00:00 +9°C° 0.1 mm 2 m/S 723 mmHg 91%
    01:00 +9°C° 0.1 mm 2 m/S 723 mmHg 90%
    02:00 +9°C° 0.1 mm 2 m/S 723 mmHg 90%
    03:00 +8°C° 0.3 mm 2 m/S 724 mmHg 89%
    04:00 +8°C° 0.3 mm 2 m/S 724 mmHg 89%
    05:00 +8°C° 0.3 mm 2 m/S 724 mmHg 89%
    06:00 +8°C° 0.2 mm 2 m/S 725 mmHg 88%
    07:00 +8°C° 0.2 mm 2 m/S 725 mmHg 88%
    08:00 +8°C° 0.2 mm 2 m/S 725 mmHg 87%
    09:00 +9°C° 0.1 mm 2 m/S 726 mmHg 83%
    10:00 +9°C° 0.1 mm 3 m/S 726 mmHg 79%
    11:00 +10°C° 0.1 mm 3 m/S 727 mmHg 75%
    12:00 +10°C° 0.1 mm 3 m/S 727 mmHg 74%
    13:00 +10°C° 0.1 mm 3 m/S 727 mmHg 74%
    14:00 +10°C° 0.1 mm 4 m/S 727 mmHg 73%
    15:00 +9°C° 0.1 mm 3 m/S 727 mmHg 75%
    16:00 +9°C° 0.1 mm 3 m/S 728 mmHg 78%
    17:00 +8°C° 0.1 mm 3 m/S 728 mmHg 81%
    18:00 +7°C° 0.3 mm 3 m/S 728 mmHg 82%
    19:00 +7°C° 0.3 mm 3 m/S 729 mmHg 83%
    20:00 +6°C° 0.3 mm 4 m/S 729 mmHg 84%
    21:00 +6°C° 0.3 mm 4 m/S 730 mmHg 84%
    22:00 +5°C° 0.3 mm 4 m/S 730 mmHg 84%
    23:00 +5°C° 0.3 mm 4 m/S 730 mmHg 84%

    23 November, Freitag

    Zeit Temperatur Niederschläge Wind Luftdruck Luftfeuchtigkeit
    00:00 +5°C° 0.2 mm 3 m/S 731 mmHg 84%
    01:00 +5°C° 0.2 mm 3 m/S 731 mmHg 85%
    02:00 +5°C° 0.2 mm 3 m/S 731 mmHg 85%
    03:00 +5°C° 0.1 mm 3 m/S 731 mmHg 85%
    04:00 +5°C° 0.1 mm 3 m/S 732 mmHg 85%
    05:00 +4°C° 0.1 mm 3 m/S 732 mmHg 85%
    06:00 +4°C° 0 mm 3 m/S 733 mmHg 85%
    07:00 +4°C° 0 mm 3 m/S 733 mmHg 85%
    08:00 +4°C° 0 mm 3 m/S 733 mmHg 85%
    09:00 +5°C° 0 mm 3 m/S 734 mmHg 80%
    10:00 +5°C° 0 mm 3 m/S 734 mmHg 76%
    11:00 +7°C° 0 mm 3 m/S 734 mmHg 72%
    12:00 +8°C° 0 mm 3 m/S 734 mmHg 70%
    13:00 +8°C° 0 mm 3 m/S 734 mmHg 67%
    14:00 +8°C° 0 mm 3 m/S 734 mmHg 64%
    15:00 +8°C° 0 mm 3 m/S 734 mmHg 67%
    16:00 +7°C° 0 mm 2 m/S 734 mmHg 70%
    17:00 +6°C° 0 mm 2 m/S 734 mmHg 73%
    18:00 +6°C° 0 mm 2 m/S 734 mmHg 75%
    19:00 +5°C° 0 mm 2 m/S 734 mmHg 77%
    20:00 +4°C° 0 mm 2 m/S 734 mmHg 79%
    21:00 +4°C° 0 mm 2 m/S 734 mmHg 80%
    22:00 +4°C° 0 mm 2 m/S 734 mmHg 80%
    23:00 +3°C° 0 mm 2 m/S 734 mmHg 81%
    Mehr zeigen